Regional Weather Roundup
Issued by NWS

Home | Current Version | Previous Version | Text Only | Print | Product List | Glossary Off
Versions: 1 2 3 4 5 6 7 8 9 10 11 12 13 14 15 16 17 18 19 20 21 22 23 24 25 26 27

000
ASUS45 KBOU 271007
RWRCO

WEATHER ROUNDUP FOR COLORADO
NATIONAL WEATHER SERVICE DENVER/BOULDER CO
400 AM MDT SAT MAY 27 2017

NOTE: "FAIR" INDICATES FEW OR NO CLOUDS BELOW 12000 FEET WITH NO
SIGNIFICANT WEATHER AND/OR OBSTRUCTIONS TO VISIBILITY.

COZ001>005-013-030-031-271100-
...NORTHWEST COLORADO...

CITY           SKY/WX    TMP DP  RH WIND       PRES   REMARKS
CRAIG          CLOUDY    44  38  79 NE3       30.10S
HAYDEN         FAIR      39  34  81 SE7       30.11S
MEEKER         CLOUDY    44  40  85 CALM      30.09F
RABBIT EARS PA NOT AVBL
STEAMBOAT SPGS NOT AVBL
WALDEN         NOT AVBL
$$

COZ006>008-011-271100-
...WEST CENTRAL VALLEYS...

CITY           SKY/WX    TMP DP  RH WIND       PRES   REMARKS
GRAND JUNCTION FAIR      52  36  54 CALM      30.01R
MONTROSE       FAIR      57  32  38 NW9       30.04R
EAGLE          FAIR      47  35  63 W8        30.08R
RIFLE          FAIR      53  37  54 VRB3      30.04R
DELTA          FAIR      60  36  39 W14G21    29.96R
NUCLA          FAIR      52  21  30 CALM      30.06R
$$

COZ017>023-064>068-271100-
...SOUTHWEST COLORADO...

CITY           SKY/WX    TMP DP  RH WIND       PRES   REMARKS
DURANGO        FAIR      40  20  44 N5        30.07R
CORTEZ         FAIR      58  24  27 SW13      30.03R
PAGOSA SPRINGS FAIR      41  12  30 NE5       30.12S
TELLURIDE      FAIR      47  18  31 CALM      30.18S
WOLF CREEK PAS NOT AVBL
$$

COZ009-010-012-014-032>034-037-058>063-271100-
...CENTRAL COLORADO...

CITY           SKY/WX    TMP DP  RH WIND       PRES   REMARKS
ASPEN          MOCLDY    47  32  56 NE5       30.08R
BUENA VISTA    FAIR      42  20  42 S6        30.05S
COPPER MTN     NOT AVBL
BERTHOUD PASS  NOT AVBL
COTTONWOOD PAS NOT AVBL
GUNNISON       FAIR      34  26  72 CALM      30.08R
KREMMLING      NOT AVBL
LEADVILLE      CLOUDY    37  20  50 SE5       30.11F
SALIDA         FAIR      45  16  31 NW6       30.10S
SUNLIGHT       NOT AVBL
WILKERSON PASS NOT AVBL
$$

COZ069>075-271100-
...SAN LUIS VALLEY/SANGRE DE CRISTO MOUNTAINS...

CITY           SKY/WX    TMP DP  RH WIND       PRES   REMARKS
ALAMOSA        FAIR      41  18  39 S10       30.07S
DEL NORTE      NOT AVBL
LA VETA PASS   NOT AVBL
SAGUACHE       NOT AVBL
$$

COZ035-036-038>040-271100-
...NORTHERN COLORADO FRONT RANGE...

CITY           SKY/WX    TMP DP  RH WIND       PRES   REMARKS
DENVER INTL AP CLOUDY    49  45  86 W6        30.03F
DMNS CITY PARK   N/A     47  43  83 E9        30.03F
AURORA         CLOUDY    47  46  93 CALM      30.05F
FRONT RANGE AP NOT AVBL
ERIE MUNI ARPT NOT AVBL
BOULDER MUN AP NOT AVBL
CENTENNIAL     CLOUDY    48  44  86 NW5       30.05F
BROOMFIELD     NOT AVBL
FORT COLLINS   CLOUDY    49  44  83 CALM      30.02F
LONGMONT       NOT AVBL
$$

COZ041-046-047-076>085-087-088-271100-
...PIKES PEAK/PALMER DIVIDE AND SOUTHERN FOOTHILLS...

CITY           SKY/WX    TMP DP  RH WIND       PRES   REMARKS
COLO. SPRINGS  FAIR      50  41  71 N21G31    30.03S
A. F. ACADEMY  CLOUDY    47  41  80 N16G23    30.04R
SCHRIEVER AFB  FAIR      47  41  79 N21G31    30.02S
CHEYENNE MTN   FAIR      45  40  82 NW16G25   29.98S
ELLICOTT       FAIR     N/A N/A N/A N22G29    30.00R
FALCON         MOCLDY    46  40  81 N20G28    30.05S
FORT CARSON    FAIR      50  41  71 N22G29    29.99R
LIMON          CLOUDY    48  48 100 NW21      30.01S
MONUMENT HILL  NOT AVBL
CANON CITY     NOT AVBL
WALSENBURG     FAIR      45  41  87 SW5       30.05R
TRINIDAD       MOCLDY    50  43  77 NW12      30.03R
$$

COZ042>045-048>051-090-091-271100-
...NORTHEAST COLORADO...

CITY           SKY/WX    TMP DP  RH WIND       PRES   REMARKS
GREELEY ARPT   CLOUDY    50  45  83 SW3       30.02F
AKRON          CLOUDY    50  47  89 N12       29.99F
BURLINGTON     CLOUDY    55  50  83 W6        29.94R
WRAY           CLOUDY    54  54 100 NW16      29.94S
YUMA           NOT AVBL
STERLING       NOT AVBL
HOLYOKE        NOT AVBL
FORT MORGAN    MOCLDY    47  45  92 NW5       30.01S
$$

COZ086-089-092>099-271100-
...SOUTHEAST COLORADO...

CITY           SKY/WX    TMP DP  RH WIND       PRES   REMARKS
PUEBLO         FAIR      54  43  66 N22G31    29.96R
LA JUNTA       MOCLDY    55  48  77 N15       29.93R
LAMAR          FAIR      53  48  83 NE10      29.86R
SPRINGFIELD      N/A     48  38  68 NW10      29.86R
$$




USA.gov is the U.S. government's official web portal to all federal, state and local government web resources and services.